Погода в Шэньчжэне

Китай     22°32′46″N   114°03′16″E
темп.,
°C
ветер,
м/с
пор.,
м/с
влажн.,
%
обл.,
%
осадки,
мм/ч
давл.,
гПа
погр.,
м
25 июля, вс
вс2523:00+28ю3583100 2.3 999190
02:00+27ю338899 6.4 999180
05:00+28зюз228399 1.3 99996
08:00+29зсз127714 1.3 1000272
11:00+31юз226531 0.2 1000817
14:00+32ююз536221 0.3 998714
17:00+30ю557256 0.0 998507
20:00+29ююз468052 0.3 999341
26 июля, пн
пн2623:00+29ююз458079 0.3 1000354
02:00+29ююз357986 0.5 998265
05:00+29юз23805 0.2 998153
08:00+30юз12735 0.3 999306
11:00+32юз32645 0.1 999792
14:00+32ююз436316 0.1 997696
17:00+31ююз546816 0.0 995432
20:00+30ю447588 0.0 996232
27 июля, вт
вт2723:00+29ююз4779100 0.3 998291
02:00+29ююз478170 0.9 996264
05:00+29з117934 0.5 99622
08:00+30з237399 0.5 997209
11:00+32зюз346490 0.0 997655
14:00+34ююз345598 0.0 9941137
17:00+31ююз6871100 0.0 994283
20:00+30ююз597775 0.3 995297
28 июля, ср
ср2823:00+30юз5979100 1.1 996277
02:00+30юз597631 1.5 996335
05:00+29юз368064 0.8 996178
08:00+31юз347477 1.1 997253
11:00+33юз4464100 0.0 997707
14:00+32ююз6468100 0.0 996565
17:00+31ююз6774100 0.0 995360
20:00+30ююз688263 0.6 997301
29 июля, чт
чт2923:00+30ююз6983100 0.5 998359
02:00+29юз698497 2.7 997376
05:00+29юз61083100 5.6 997356
08:00+30юз5978100 8.7 999378
11:00+31ююз667093 0.6 999585
14:00+31ююз5570100 0.6 998596
17:00+32ююз667093 1.4 997506
20:00+29ююз6882100 4.9 998277